User: anonymous   Login
Location: Bittkow
(50.3000°N, 19.0000°E)
Time: 17:18:40
(UTC+00:00)
Language:

Cosmos 1697 Rocket - Orbit

View from above orbital plane
View from above orbital plane
View from above satellite
View from above satellite

Ground track
Ground track

The orbit data is extracted from the following two-line orbital elements,

1 16182U 85097B   20337.43306748 -.00000091  00000-0 -21699-4 0  9990
2 16182  71.0018 228.0605 0009519 299.0878 234.2471 14.16253494814934
Epoch (UTC): 02 December 2020 10:23:37
Eccentricity: 0.0009519
inclination: 71.0018°
perigee height: 831 km
apogee height: 845 km
right ascension of ascending node: 228.0605°
argument of perigee: 299.0878°
revolutions per day: 14.16253494
mean anomaly at epoch: 234.2471°
orbit number at epoch: 81493

The dashed part of the orbit path shows where the satellite is in the earth's shadow,  

DLR